Location: Casteau
(50.5142°N, 4.0161°E)
Time: 02:50:21
(UTC+00:00)

Transit 2A - Pass Details

Date: 03 August 2021
Orbit: 594 x 964 km, 66.7° (Epoch: 27 September)

Event Time Altitude Azimuth Distance (km) Brightness Sun altitude
Rises 07:31:20 0° 258° (WSW) 2,891 8.5 29.4°
Reaches altitude 10° 07:33:53 10° 272° (W) 2,026 7.8 29.8°
Maximum altitude 07:37:38 25° 328° (NNW) 1,361 7.2 30.3°
Drops below altitude 10° 07:41:41 10° 23° (NNE) 2,193 8.6 31.0°
Sets 07:44:34 0° 37° (NE) 3,187 9.5 31.4°
